Location: Copeville
(33.0796°N, 96.4155°W)
Time: 12:31:42
(UTC+00:00)

Cosmos 1805 Rocket - Pass Details

Date: 03 July 2022
Orbit: 605 x 629 km, 82.5° (Epoch: 12 August)

Event Time Altitude Azimuth Distance (km) Brightness Sun altitude
Exits shadow 10:21:08 16° 224° (SW) 1,636 5.1 -11.4°
Maximum altitude 10:24:04 32° 281° (W) 1,063 4.4 -11.0°
Drops below altitude 10° 10:28:02 10° 345° (NNW) 1,991 6.4 -10.3°
Sets 10:30:27 0° 355° (N) 2,896 7.5 -9.9°
